Preview of NWS' New Version of Forecast
This preview is not operational and should not be used for support decisions.

Regional Weather Roundup (RWR)

Issued by National Weather Service (NWS)

                            
000
ASUS46 KPQR 171910
RWROR 

OREGON REGIONAL WEATHER ROUNDUP
NATIONAL WEATHER SERVICE PORTLAND OR
1200 PM PDT SAT AUG 17 2019

NOTE: "FAIR" INDICATES FEW OR NO CLOUDS BELOW 12,000 FEET WITH
NO SIGNIFICANT WEATHER AND/OR OBSTRUCTIONS TO VISIBILITY.

ORZ001>013-172000-
NORTHWEST OREGON

  
CITY           SKY/WX    TMP DP  RH WIND       PRES   REMARKS
ASTORIA        CLOUDY    65  57  75 W8        30.03S                  
TILLAMOOK      CLOUDY    66  55  68 NW6       30.06S                  
PORTLAND       PTSUNNY   67  55  65 E6        30.03S                  
VANCOUVER WA   CLOUDY    67  52  58 VRB3      30.03S                  
SCAPPOOSE      CLOUDY    66  55  67 CALM      30.02S                  
HILLSBORO      CLOUDY    68  52  56 NW5       30.02F                  
AURORA         CLOUDY    67  52  58 VRB3      30.04F                  
MCMINNVILLE    CLOUDY    68  52  56 CALM      30.02F                  
SALEM          CLOUDY    68  51  54 N5        30.02F                  
CORVALLIS      CLOUDY    71  53  52 NW6       30.03F                  
EUGENE         MOSUNNY   73  51  46 N12G17    30.03F                  
$$

ORZ021-028-172000-
SOUTHWEST OREGON

  
CITY           SKY/WX    TMP DP  RH WIND       PRES   REMARKS
NORTH BEND     MOSUNNY   69  55  60 N16G23    30.04S                  
BROOKINGS      SUNNY     82  56  40 NW10      29.87F                  
ROSEBURG       SUNNY     73  52  47 N9        29.99F                  
SEXTON SUMMIT  SUNNY     65  48  54 N7        30.05S                  
GRANTS PASS    FAIR      75  48  38 CALM      29.98F                  
MEDFORD        SUNNY     74  45  35 CALM      29.95F                  
$$

ORZ014>016-041-172000-
COLUMBIA GORGE

  
CITY           SKY/WX    TMP DP  RH WIND       PRES   REMARKS
TROUTDALE      CLOUDY    65  56  72 E3        30.03F                  
HOOD RIVER     MOSUNNY   70  52  52 NW5G16    29.98F                  
THE DALLES     SUNNY     75  51  43 NW20G28   29.93F                  
$$

ORZ029>031-041-044-049-050-061>064-502-503-505>511-172000-
EASTERN OREGON

  
CITY           SKY/WX    TMP DP  RH WIND       PRES   REMARKS
MADRAS         SUNNY     72  45  37 N5        30.00F                  
REDMOND        SUNNY     75  40  28 VRB6      29.99F                  
BEND           SUNNY     73  37  27 CALM      29.99F                  
PRINEVILLE     SUNNY     72  41  33 CALM      29.99F                  
KLAMATH FALLS  SUNNY     74  37  26 VRB3      30.02F                  
LAKEVIEW       SUNNY     75  37  25 S7        30.04F                  
HERMISTON      SUNNY     79  50  36 VRB7      29.91F                  
PENDLETON      SUNNY     75  46  35 W9G18     29.93F                  
JOHN DAY       SUNNY     72  40  31 CALM      29.99F                  
MEACHAM        SUNNY     66  44  45 VRB5      30.00F                  
LA GRANDE      SUNNY     74  45  35 NW10      29.95S                  
BAKER CITY     SUNNY     75  44  33 N6        29.97S                  
BURNS          MOSUNNY   76  40  27 MISG      30.00F                  
ROME             N/A     82  28  14 W12G21    29.97F                  
ONTARIO        SUNNY     83  46  27 SE5       29.89F                  
$$